Change the Weather History Date:

Friday, December 7, 2012

  Actual Average (KLEX) Record (KLEX)
Temperature  
Mean Temperature 54 °F 38 °F  
Max Temperature 59 °F 46 °F 68 °F (1951)
Min Temperature 50 °F 30 °F -1 °F (1977)
Degree Days  
Heating Degree Days 10 27  
Month to date heating degree days 182  
Since 1 July heating degree days 1069  
Cooling Degree Days 0 0  
Month to date cooling degree days 0  
Year to date cooling degree days 1190  
Growing Degree Days 4 (Base 50)    
Moisture  
Dew Point 50 °F    
Average Humidity 87    
Maximum Humidity 100    
Minimum Humidity 76    
Precipitation  
Precipitation 0.00 in 0.14 in 2.89 in (1924)
Month to date precipitation 0.91  
Year to date precipitation 42.15  
Snow  
Snow 0.00 in 0.10 in 3.10 in (1950)
Month to date snowfall 0.4  
Since 1 July snowfall 0.7  
Snow Depth -    
Sea Level Pressure  
Sea Level Pressure 29.96 in    
Wind  
Wind Speed 8 mph (SSW)    
Max Wind Speed 14 mph    
Max Gust Speed 21 mph    
Visibility 10 miles    
Events Rain    
T = Trace of Precipitation, MM = Missing Value Source: NWS Daily Summary

Daily Weather History Graph

Daily Weather History Graph

Search for Another Location

Airport or City:

Trip Planner

Search our weather history database for the weather conditions in past years. The results will help you decide how hot, cold, wet, or windy it might be!

Date:

Astronomy

Dec. 07, 2012 Rise Set
Actual Time 7:40 AM EST 5:20 PM EST
Civil Twilight 7:11 AM EST 5:49 PM EST
Nautical Twilight 6:39 AM EST 6:22 PM EST
Astronomical Twilight 6:07 AM EST 6:54 PM EST
Moon 1:05 AM EST (12/7) 1:11 PM EST (12/7)
Length of Visible Light 10h 37m
Length of Day
9h 39m
Last Quarter, 39% of the Moon is Illuminated
Dec 7
Last Quarter
Dec 13
New
Dec 20
First Quarter
Dec 28
Full
Jan 4
Last Quarter

Hourly Weather History & Observations

Time (EST) Temp. Dew Point Humidity Pressure Visibility Wind Dir Wind Speed Gust Speed Precip Events Conditions
12:15 AM 50.0 °F 44.6 °F 82% 30.02 in 10.0 mi SSW 6.9 mph - N/A   Overcast
12:35 AM 50.0 °F 44.6 °F 82% 30.02 in 10.0 mi SW 6.9 mph - N/A   Overcast
12:55 AM 51.8 °F 44.6 °F 76% 30.03 in 10.0 mi SW 9.2 mph - N/A   Overcast
1:15 AM 50.0 °F 46.4 °F 87% 30.03 in 10.0 mi SW 10.4 mph - N/A Rain Light Rain
1:35 AM 50.0 °F 46.4 °F 87% 30.03 in 7.0 mi SSW 9.2 mph - N/A Rain Rain
1:55 AM 50.0 °F 46.4 °F 87% 30.01 in 10.0 mi South 8.1 mph - N/A Rain Light Rain
2:15 AM 50.0 °F 46.4 °F 87% 30.02 in 10.0 mi SSW 8.1 mph - N/A   Light Drizzle
2:35 AM 50.0 °F 46.4 °F 87% 30.01 in 10.0 mi SSW 6.9 mph - N/A   Overcast
2:55 AM 50.0 °F 46.4 °F 87% 30.01 in 10.0 mi SSW 10.4 mph - N/A   Overcast
3:15 AM 50.0 °F 46.4 °F 87% 30.01 in 10.0 mi SSW 9.2 mph - N/A   Overcast
3:35 AM 50.0 °F 46.4 °F 87% 30.01 in 10.0 mi SSW 8.1 mph - N/A   Overcast
3:55 AM 50.0 °F 46.4 °F 87% 30.00 in 10.0 mi SSW 8.1 mph - N/A   Scattered Clouds
4:15 AM 50.0 °F 46.4 °F 87% 30.00 in 10.0 mi SSW 6.9 mph - N/A   Mostly Cloudy
4:35 AM 50.0 °F 46.4 °F 87% 30.00 in 10.0 mi SSW 6.9 mph - N/A   Scattered Clouds
4:55 AM 50.0 °F 46.4 °F 87% 30.00 in 10.0 mi SSW 6.9 mph - N/A   Mostly Cloudy
5:15 AM 50.0 °F 46.4 °F 87% 29.99 in 10.0 mi South 6.9 mph - N/A   Mostly Cloudy
5:35 AM 50.0 °F 46.4 °F 87% 30.00 in 10.0 mi SSW 6.9 mph - N/A   Scattered Clouds
5:55 AM 50.0 °F 46.4 °F 87% 30.00 in 10.0 mi South 5.8 mph - N/A   Mostly Cloudy
6:15 AM 50.0 °F 46.4 °F 87% 29.99 in 10.0 mi SSW 8.1 mph - N/A   Mostly Cloudy
6:35 AM 50.0 °F 46.4 °F 87% 29.99 in 10.0 mi SSW 8.1 mph - N/A   Scattered Clouds
6:55 AM 50.0 °F 46.4 °F 87% 30.00 in 10.0 mi SSW 9.2 mph - N/A   Overcast
7:15 AM 50.0 °F 46.4 °F 87% 30.00 in 10.0 mi South 8.1 mph - N/A   Mostly Cloudy
7:35 AM 50.0 °F 46.4 °F 87% 30.00 in 10.0 mi South 8.1 mph - N/A   Overcast
7:55 AM 51.8 °F 46.4 °F 82% 30.00 in 10.0 mi South 8.1 mph - N/A   Overcast
8:15 AM 51.8 °F 46.4 °F 82% 30.00 in 10.0 mi SSW 8.1 mph - N/A   Overcast
8:35 AM 51.8 °F 46.4 °F 82% 30.00 in 10.0 mi SSW 8.1 mph - N/A   Overcast
8:55 AM 51.8 °F 46.4 °F 82% 30.00 in 10.0 mi SSW 6.9 mph - N/A   Overcast
9:15 AM 51.8 °F 48.2 °F 88% 30.00 in 10.0 mi SSW 9.2 mph - N/A   Overcast
9:35 AM 51.8 °F 48.2 °F 88% 30.00 in 10.0 mi SSW 9.2 mph - N/A   Overcast
9:55 AM 51.8 °F 48.2 °F 88% 30.00 in 10.0 mi SSW 8.1 mph - N/A   Overcast
10:15 AM 53.6 °F 50.0 °F 88% 30.00 in 10.0 mi SSW 8.1 mph - N/A   Overcast
10:35 AM 53.6 °F 50.0 °F 88% 30.00 in 10.0 mi SSW 6.9 mph - N/A   Overcast
10:55 AM 53.6 °F 50.0 °F 88% 30.00 in 10.0 mi SSW 8.1 mph - N/A   Overcast
11:15 AM 55.4 °F 50.0 °F 82% 29.99 in 10.0 mi SSW 9.2 mph - N/A   Overcast
11:35 AM 55.4 °F 50.0 °F 82% 29.98 in 10.0 mi SSW 11.5 mph - N/A   Overcast
11:55 AM 55.4 °F 50.0 °F 82% 29.97 in 10.0 mi SSW 11.5 mph 16.1 mph N/A Rain Light Rain
12:15 PM 55.4 °F 51.8 °F 88% 29.96 in 10.0 mi SSW 10.4 mph - N/A   Overcast
12:35 PM 57.2 °F 51.8 °F 82% 29.95 in 10.0 mi SSW 11.5 mph - N/A   Overcast
12:55 PM 59.0 °F 51.8 °F 77% 29.94 in 10.0 mi SSW 13.8 mph 19.6 mph N/A   Scattered Clouds
1:15 PM 59.0 °F 51.8 °F 77% 29.93 in 10.0 mi SW 11.5 mph 17.3 mph N/A   Scattered Clouds
1:35 PM 59.0 °F 51.8 °F 77% 29.93 in 10.0 mi SW 10.4 mph - N/A   Mostly Cloudy
1:55 PM 59.0 °F 51.8 °F 77% 29.92 in 10.0 mi SSW 10.4 mph - N/A   Overcast
2:15 PM 59.0 °F 51.8 °F 77% 29.91 in 10.0 mi SSW 13.8 mph 20.7 mph N/A   Overcast
2:35 PM 59.0 °F 51.8 °F 77% 29.91 in 10.0 mi SW 10.4 mph - N/A   Mostly Cloudy
2:55 PM 59.0 °F 51.8 °F 77% 29.91 in 10.0 mi SW 9.2 mph - N/A   Mostly Cloudy
3:15 PM 59.0 °F 51.8 °F 77% 29.91 in 10.0 mi SW 9.2 mph - N/A Rain Rain
3:35 PM 59.0 °F 51.8 °F 77% 29.91 in 10.0 mi SW 8.1 mph - N/A   Light Drizzle
3:55 PM 59.0 °F 51.8 °F 77% 29.91 in 10.0 mi SW 9.2 mph - N/A   Overcast
4:15 PM 57.2 °F 51.8 °F 82% 29.91 in 10.0 mi SSW 5.8 mph - N/A   Overcast
4:35 PM 57.2 °F 51.8 °F 82% 29.91 in 10.0 mi SSW 5.8 mph - N/A   Overcast
4:55 PM 57.2 °F 51.8 °F 82% 29.91 in 10.0 mi SW 3.5 mph - N/A   Overcast
5:15 PM 55.4 °F 53.6 °F 94% 29.91 in 10.0 mi SSW 3.5 mph - N/A Rain Light Rain
5:35 PM 55.4 °F 51.8 °F 88% 29.91 in 10.0 mi SSW 5.8 mph - N/A   Light Drizzle
5:55 PM 55.4 °F 53.6 °F 94% 29.90 in 10.0 mi SSW 4.6 mph - N/A   Overcast
6:15 PM 55.4 °F 53.6 °F 94% 29.91 in 10.0 mi SW 4.6 mph - N/A   Overcast
6:35 PM 55.4 °F 53.6 °F 94% 29.91 in 10.0 mi SSW 4.6 mph - N/A   Overcast
6:55 PM 55.4 °F 53.6 °F 94% 29.91 in 10.0 mi SW 8.1 mph - N/A Rain Rain
7:15 PM 55.4 °F 53.6 °F 94% 29.91 in 10.0 mi South 4.6 mph - N/A Rain Light Rain
7:35 PM 55.4 °F 53.6 °F 94% 29.91 in 10.0 mi SSW 6.9 mph - N/A Rain Rain
8:15 PM 53.6 °F 51.8 °F 94% 29.91 in 10.0 mi WSW 5.8 mph - N/A   Mostly Cloudy
8:35 PM 55.4 °F 51.8 °F 88% 29.91 in 10.0 mi SW 3.5 mph - N/A   Overcast
8:55 PM 55.4 °F 53.6 °F 94% 29.92 in 10.0 mi SSW 3.5 mph - N/A   Overcast
9:15 PM 53.6 °F 53.6 °F 100% 29.92 in 10.0 mi SSW 3.5 mph - N/A Rain Light Rain
9:35 PM 53.6 °F 51.8 °F 94% 29.92 in 10.0 mi SSW 5.8 mph - N/A   Overcast
9:55 PM 53.6 °F 51.8 °F 94% 29.92 in 10.0 mi SSW 4.6 mph - N/A   Overcast
10:15 PM 53.6 °F 51.8 °F 94% 29.92 in 10.0 mi SSW 6.9 mph - N/A   Overcast
10:35 PM 55.4 °F 51.8 °F 88% 29.92 in 10.0 mi SW 5.8 mph - N/A   Overcast
10:55 PM 53.6 °F 53.6 °F 100% 29.92 in 7.0 mi SSW 5.8 mph - N/A Rain Light Rain
11:15 PM 53.6 °F 51.8 °F 94% 29.93 in 10.0 mi SW 4.6 mph - N/A   Overcast
11:35 PM 53.6 °F 51.8 °F 94% 29.93 in 10.0 mi SSW 8.1 mph - N/A   Overcast
11:55 PM 55.4 °F 53.6 °F 94% 29.92 in 10.0 mi SSW 8.1 mph - N/A   Overcast